Miscellaneous Local Product
Issued by NWS North Platte, NE

Home | Current Version | Previous Version | Graphics & Text | Print | Product List | Glossary On
Versions: 1 2 3 4 5 6 7 8 9 10 11 12 13 14 15 16 17 18 19 20 21 22 23 24 25 26 27 28 29 30 31 32 33 34 35 36 37 38 39 40 41 42 43 44 45 46 47 48 49 50
878
AXUS43 KLBF 250610
MISLBF


WESTERN AND NORTH CENTRAL NEBRASKA HOURLY WEATHER ROUNDUP
NATIONAL WEATHER SERVICE NORTH PLATTE NE
100 AM CDT WED APR 25 2018

NOTE: "FAIR" INDICATES FEW OR NO CLOUDS BELOW 12,000 FEET WITH NO
SIGNIFICANT WEATHER AND/OR OBSTRUCTIONS TO VISIBILITY.

NOTE: STATIONS NOT REPORTING VARIABLES SUCH AS SKY/WEATHER OR
PRESSURE ARE PROVIDED BY RAWS AND APRS NETWORKS AND ARE NOT UNDER
NATIONAL WEATHER SERVICE QUALITY CONTROL.

...OBSERVATIONS IN AND NEAR THE EASTERN PANHANDLE OF NEBRASKA...

CITY           SKY/WX    TMP DP  RH WIND       PRES   REMARKS
PINE RIDGE     MOCLDY    31  28  89 W3        30.40F
GORDON         CLOUDY    37  31  78 W5        30.39S WCI  34
CHADRON        CLEAR     28  26  92 W8        30.42F WCI  20
ALLIANCE       CLOUDY    30  30 100 W6        30.41S WCI  24
SIDNEY         CLOUDY    31  27  85 NE6       30.42S WCI  25
CRESCENT LAKE    N/A     34  32  92 W5          N/A  WCI  30
$$

...OBSERVATIONS IN NORTHERN NEBRASKA AND FAR SOUTHERN SOUTH DAKOTA...

CITY           SKY/WX    TMP DP  RH WIND       PRES   REMARKS
WINNER         MOCLDY    39  33  79 W6        30.37S WCI  35
VALENTINE      CLOUDY    39  34  82 NW7       30.37F WCI  34
AINSWORTH      CLOUDY    37  36  96 NW7       30.36F WCI  31
O`NEILL        CLOUDY    42  40  91 N7        30.34S
THEDFORD       CLOUDY    36  35  94 NW8       30.38F WCI  30
BROKEN BOW     CLOUDY    38  35  89 N17       30.34S WCI  28
ORD            CLOUDY    40  38  93 N13       30.32S WCI  32
ALBION         DRIZZLE   42  40  93 N13       30.31S
VALENTINE NWR    N/A     34  32  94 NW6         N/A  WCI  29
HALSEY           N/A     35  35 100 NW5         N/A  WCI  31
BUTTE            N/A     39  37  91 NW7         N/A  WCI  34
CHAMBERS         N/A     40  39  96 N3          N/A
EWING            N/A     40  38  94 NW8         N/A  WCI  34
$$

...OBSERVATIONS IN SOUTHWEST NEBRASKA AND FAR NORTHEAST COLORADO...

CITY           SKY/WX    TMP DP  RH WIND       PRES   REMARKS
WRAY           FAIR      32  30  93 NW6       30.41F WCI  26
HOLYOKE        FAIR      37  32  81 N10       30.42F WCI  30
IMPERIAL       CLOUDY    37  32  82 NW15      30.40F WCI  28
OGALLALA       CLOUDY    38  32  79 NW9       30.41F WCI  32
NORTH PLATTE   CLOUDY    37  33  85 N12       30.38F WCI  29
MCCOOK         CLOUDY    38  34  85 N17       30.36F WCI  28
LEXINGTON      CLOUDY    39  35  86 NW13      30.35S WCI  32
STAPLETON        N/A     35  33  92 CALM        N/A
GOTHENBURG       N/A     37  32  83 NW8         N/A  WCI  31
CALLAWAY         N/A     36  34  93 N13         N/A  WCI  27
$$

...OBSERVATIONS IN CENTRAL LINCOLN COUNTY AREA...

CITY           SKY/WX    TMP DP  RH WIND       PRES   REMARKS
N.P. AIRPORT   CLOUDY    37  33  85 N12       30.38F WCI  29
N.P. DOWNTOWN    N/A     36  33  90 NW3         N/A
N.P. SOUTHEAST   N/A     36  32  87 NW6G15      N/A  WCI  31
N.P. HILLCREST   N/A     36  34  92 NW10        N/A  WCI  28
$$

...OBSERVATIONS ACROSS THE ROCKIES AND WESTERN HIGH PLAINS...

CITY           SKY/WX    TMP DP  RH WIND       PRES   REMARKS
RAPID CITY     CLEAR     30  22  72 W6        30.39F WCI  24
SCOTTSBLUFF    MOCLDY    31  29  92 N6        30.43S WCI  25
CHEYENNE       CLEAR     30  25  81 W7        30.41S WCI  23
DENVER         CLOUDY    37  28  70 CALM      30.43F
BERTHOUD PASS  CLOUDY    14   5  67 NW15G25   30.38S WCI  -1
MONARCH PASS   PTCLDY    23  12  63 NW10      30.50R WCI  12
ASPEN          PTCLDY    30  20  66 S8        30.36R WCI  22
STEAMBOAT      FAIR      33  20  60 CALM      30.40R
LARAMIE        CLEAR     21  17  84 NW7       30.39F WCI  12
CASPER         CLEAR     26  22  84 SW8       30.39F WCI  18
$$

...OBSERVATIONS ACROSS THE NORTHERN PLAINS...

CITY           SKY/WX    TMP DP  RH WIND       PRES   REMARKS
BISMARCK       CLEAR     39  27  62 SW6       30.32F WCI  35
FARGO          FAIR      32  27  81 CALM      30.32F
PIERRE         CLEAR     35  28  75 W6        30.35F WCI  30
SIOUX FALLS    CLEAR     39  31  72 N13       30.29S WCI  31
$$

...OBSERVATIONS ACROSS THE CENTRAL AND SOUTHERN PLAINS...

CITY           SKY/WX    TMP DP  RH WIND       PRES   REMARKS
OMAHA          CLOUDY    50  46  86 N13       30.23R
GRAND ISLAND   CLOUDY    42  39  89 N17       30.30S
KANSAS CITY    CLOUDY    57  46  66 N14       30.11S
WICHITA        LGT RAIN  49  46  90 N14       30.20S
DODGE CITY     LGT RAIN  39  36  89 N23G32    30.32S FOG     WCI  28
OKLAHOMA CITY  CLOUDY    59  50  72 N20       30.15R
DALLAS         CLOUDY    71  51  49 SW9       30.09R THUNDER
AMARILLO       CLOUDY    44  35  70 N26G37    30.32R
$$




USA.gov is the U.S. government's official web portal to all federal, state and local government web resources and services.